Time,TemperatureF,DewpointF,PressureIn,WindDirection,WindDirectionDegrees,WindSpeedMPH,WindSpeedGustMPH,Humidity,HourlyPrecipIn,Conditions,Clouds,dailyrainin,SoftwareType,DateUTC
2013-05-02 00:09:00,57.5,1.0,30.08,North,349,5.0,11.0,10,0.00,,,0.00,weatherlink.com 1.10,2013-05-02 07:09:00,
2013-05-02 00:24:00,57.0,1.0,30.08,NNW,342,5.0,11.0,10,0.00,,,0.00,weatherlink.com 1.10,2013-05-02 07:24:00,
2013-05-02 00:39:00,57.0,-2.0,30.08,NNE,33,5.0,13.0,9,0.00,,,0.00,weatherlink.com 1.10,2013-05-02 07:39:00,
2013-05-02 00:54:00,56.8,1.0,30.08,NE,46,5.0,12.0,10,0.00,,,0.00,weatherlink.com 1.10,2013-05-02 07:54:00,
2013-05-02 01:09:00,55.7,2.0,30.07,NE,38,12.0,12.0,11,0.00,,,0.00,weatherlink.com 1.10,2013-05-02 08:09:00,
2013-05-02 01:24:00,55.2,1.0,30.07,NNE,18,7.0,15.0,11,0.00,,,0.00,weatherlink.com 1.10,2013-05-02 08:24:00,
2013-05-02 01:39:00,55.1,1.0,30.07,North,350,7.0,17.0,11,0.00,,,0.00,weatherlink.com 1.10,2013-05-02 08:39:00,
2013-05-02 01:54:00,54.8,-1.0,30.07,NNE,27,10.0,14.0,10,0.00,,,0.00,weatherlink.com 1.10,2013-05-02 08:54:00,
2013-05-02 02:09:00,54.5,1.0,30.07,NNE,17,10.0,14.0,11,0.00,,,0.00,weatherlink.com 1.10,2013-05-02 09:09:00,
2013-05-02 02:24:00,53.9,0.0,30.07,NE,50,5.0,14.0,11,0.00,,,0.00,weatherlink.com 1.10,2013-05-02 09:24:00,
2013-05-02 02:39:00,53.4,2.0,30.07,NE,37,13.0,17.0,12,0.00,,,0.00,weatherlink.com 1.10,2013-05-02 09:39:00,
2013-05-02 02:54:00,52.7,1.0,30.08,NE,46,5.0,12.0,12,0.00,,,0.00,weatherlink.com 1.10,2013-05-02 09:54:00,
2013-05-02 03:10:00,52.2,3.0,30.08,NE,38,7.0,18.0,13,0.00,,,0.00,weatherlink.com 1.10,2013-05-02 10:10:00,
2013-05-02 03:25:00,51.7,4.0,30.08,ENE,61,5.0,13.0,14,0.00,,,0.00,weatherlink.com 1.10,2013-05-02 10:25:00,
2013-05-02 03:40:00,51.0,3.0,30.08,NE,54,6.0,14.0,14,0.00,,,0.00,weatherlink.com 1.10,2013-05-02 10:40:00,
2013-05-02 03:55:00,50.7,1.0,30.08,East,79,5.0,12.0,13,0.00,,,0.00,weatherlink.com 1.10,2013-05-02 10:55:00,
2013-05-02 04:10:00,50.0,2.0,30.09,ENE,61,5.0,13.0,14,0.00,,,0.00,weatherlink.com 1.10,2013-05-02 11:10:00,
2013-05-02 04:25:00,49.6,4.0,30.09,NNE,30,6.0,14.0,15,0.00,,,0.00,weatherlink.com 1.10,2013-05-02 11:25:00,
2013-05-02 04:40:00,49.2,3.0,30.09,NE,46,8.0,13.0,15,0.00,,,0.00,weatherlink.com 1.10,2013-05-02 11:40:00,
2013-05-02 04:55:00,49.2,2.0,30.09,ENE,59,10.0,17.0,14,0.00,,,0.00,weatherlink.com 1.10,2013-05-02 11:55:00,
2013-05-02 05:10:00,48.8,1.0,30.09,East,83,15.0,15.0,14,0.00,,,0.00,weatherlink.com 1.10,2013-05-02 12:10:00,
2013-05-02 05:25:00,48.1,2.0,30.09,East,80,6.0,16.0,15,0.00,,,0.00,weatherlink.com 1.10,2013-05-02 12:25:00,
2013-05-02 05:40:00,47.7,2.0,30.09,ENE,57,7.0,14.0,15,0.00,,,0.00,weatherlink.com 1.10,2013-05-02 12:40:00,
2013-05-02 05:55:00,47.2,2.0,30.10,ENE,67,4.0,16.0,15,0.00,,,0.00,weatherlink.com 1.10,2013-05-02 12:55:00,
2013-05-02 06:10:00,47.6,2.0,30.10,ENE,78,4.0,14.0,15,0.00,,,0.00,weatherlink.com 1.10,2013-05-02 13:10:00,
2013-05-02 06:25:00,47.8,2.0,30.11,NE,40,5.0,11.0,15,0.00,,,0.00,weatherlink.com 1.10,2013-05-02 13:25:00,
2013-05-02 06:41:00,48.1,4.0,30.11,ENE,59,8.0,17.0,16,0.00,,,0.00,weatherlink.com 1.10,2013-05-02 13:41:00,
2013-05-02 06:56:00,49.7,2.0,30.11,East,85,10.0,16.0,14,0.00,,,0.00,weatherlink.com 1.10,2013-05-02 13:56:00,
2013-05-02 07:11:00,52.4,3.0,30.12,ENE,74,13.0,17.0,13,0.00,,,0.00,weatherlink.com 1.10,2013-05-02 14:11:00,
2013-05-02 07:26:00,54.0,2.0,30.12,NE,50,16.0,22.0,12,0.00,,,0.00,weatherlink.com 1.10,2013-05-02 14:26:00,
2013-05-02 07:41:00,54.9,1.0,30.13,ENE,59,10.0,18.0,11,0.00,,,0.00,weatherlink.com 1.10,2013-05-02 14:41:00,
2013-05-02 07:56:00,55.7,4.0,30.13,ENE,67,8.0,21.0,12,0.00,,,0.00,weatherlink.com 1.10,2013-05-02 14:56:00,
2013-05-02 08:11:00,56.0,0.0,30.13,NE,54,14.0,23.0,10,0.00,,,0.00,weatherlink.com 1.10,2013-05-02 15:11:00,
2013-05-02 08:26:00,56.5,4.0,30.14,NE,44,13.0,23.0,12,0.00,,,0.00,weatherlink.com 1.10,2013-05-02 15:26:00,
2013-05-02 08:41:00,57.0,5.0,30.14,NNE,13,9.0,22.0,12,0.00,,,0.00,weatherlink.com 1.10,2013-05-02 15:41:00,
2013-05-02 08:56:00,57.7,7.0,30.15,ENE,73,10.0,18.0,13,0.00,,,0.00,weatherlink.com 1.10,2013-05-02 15:56:00,
2013-05-02 09:11:00,58.2,6.0,30.15,NE,44,8.0,20.0,12,0.00,,,0.00,weatherlink.com 1.10,2013-05-02 16:11:00,
2013-05-02 09:26:00,58.7,8.0,30.15,North,5,6.0,23.0,13,0.00,,,0.00,weatherlink.com 1.10,2013-05-02 16:26:00,
2013-05-02 09:41:00,58.5,6.0,30.15,East,91,8.0,25.0,12,0.00,,,0.00,weatherlink.com 1.10,2013-05-02 16:41:00,
2013-05-02 09:56:00,58.5,4.0,30.15,ENE,69,19.0,23.0,11,0.00,,,0.00,weatherlink.com 1.10,2013-05-02 16:56:00,
2013-05-02 10:12:00,59.0,6.0,30.16,East,81,11.0,26.0,12,0.00,,,0.00,weatherlink.com 1.10,2013-05-02 17:12:00,
2013-05-02 10:27:00,60.2,9.0,30.15,NE,49,8.0,14.0,13,0.00,,,0.00,weatherlink.com 1.10,2013-05-02 17:27:00,
2013-05-02 10:42:00,59.2,10.0,30.16,East,84,8.0,18.0,14,0.00,,,0.00,weatherlink.com 1.10,2013-05-02 17:42:00,
2013-05-02 10:57:00,59.7,9.0,30.16,East,80,15.0,21.0,13,0.00,,,0.00,weatherlink.com 1.10,2013-05-02 17:57:00,
2013-05-02 11:12:00,60.4,5.0,30.16,East,88,6.0,16.0,11,0.00,,,0.00,weatherlink.com 1.10,2013-05-02 18:12:00,
2013-05-02 11:27:00,61.1,10.0,30.16,ENE,68,13.0,18.0,13,0.00,,,0.00,weatherlink.com 1.10,2013-05-02 18:27:00,
2013-05-02 11:42:00,60.4,9.0,30.16,NNE,21,8.0,21.0,13,0.00,,,0.00,weatherlink.com 1.10,2013-05-02 18:42:00,
2013-05-02 11:57:00,60.9,10.0,30.15,NE,47,11.0,18.0,13,0.00,,,0.00,weatherlink.com 1.10,2013-05-02 18:57:00,
2013-05-02 12:12:00,61.2,8.0,30.15,NE,44,14.0,24.0,12,0.00,,,0.00,weatherlink.com 1.10,2013-05-02 19:12:00,
2013-05-02 12:27:00,61.2,8.0,30.14,NNE,23,15.0,24.0,12,0.00,,,0.00,weatherlink.com 1.10,2013-05-02 19:27:00,
2013-05-02 12:42:00,62.0,12.0,30.14,NE,34,9.0,17.0,14,0.00,,,0.00,weatherlink.com 1.10,2013-05-02 19:42:00,
2013-05-02 12:57:00,62.9,5.0,30.15,ENE,67,10.0,19.0,10,0.00,,,0.00,weatherlink.com 1.10,2013-05-02 19:57:00,
2013-05-02 13:12:00,62.3,11.0,30.15,North,360,8.0,17.0,13,0.00,,,0.00,weatherlink.com 1.10,2013-05-02 20:12:00,
2013-05-02 16:14:00,64.2,6.0,30.10,East,91,7.0,18.0,10,0.00,,,0.00,weatherlink.com 1.10,2013-05-02 23:14:00,
2013-05-02 16:28:00,63.5,6.0,30.10,NNE,30,11.0,20.0,10,0.00,,,0.00,weatherlink.com 1.10,2013-05-02 23:28:00,
2013-05-02 16:43:00,63.4,6.0,30.10,NE,38,13.0,17.0,10,0.00,,,0.00,weatherlink.com 1.10,2013-05-02 23:43:00,
2013-05-02 16:58:00,64.2,8.0,30.10,NNE,32,12.0,15.0,11,0.00,,,0.00,weatherlink.com 1.10,2013-05-02 23:58:00,
2013-05-02 17:13:00,64.4,4.0,30.09,NNE,28,10.0,18.0,9,0.00,,,0.00,weatherlink.com 1.10,2013-05-03 00:13:00,
2013-05-02 17:28:00,63.8,4.0,30.09,NE,44,5.0,14.0,9,0.00,,,0.00,weatherlink.com 1.10,2013-05-03 00:28:00,
2013-05-02 17:43:00,62.7,5.0,30.09,NE,42,4.0,15.0,10,0.00,,,0.00,weatherlink.com 1.10,2013-05-03 00:43:00,
2013-05-02 17:58:00,62.0,5.0,30.09,NNE,19,4.0,14.0,10,0.00,,,0.00,weatherlink.com 1.10,2013-05-03 00:58:00,
2013-05-02 18:14:00,61.5,2.0,30.08,NNE,19,6.0,16.0,9,0.00,,,0.00,weatherlink.com 1.10,2013-05-03 01:14:00,
2013-05-02 18:29:00,60.6,1.0,30.09,ENE,57,7.0,15.0,9,0.00,,,0.00,weatherlink.com 1.10,2013-05-03 01:29:00,
2013-05-02 18:44:00,59.5,0.0,30.08,NNE,13,9.0,11.0,9,0.00,,,0.00,weatherlink.com 1.10,2013-05-03 01:44:00,
2013-05-02 18:59:00,57.5,-1.0,30.08,ENE,63,8.0,17.0,9,0.00,,,0.00,weatherlink.com 1.10,2013-05-03 01:59:00,
2013-05-02 19:14:00,55.9,-3.0,30.08,NNE,13,9.0,19.0,9,0.00,,,0.00,weatherlink.com 1.10,2013-05-03 02:14:00,
2013-05-02 19:29:00,55.4,-3.0,30.08,North,360,9.0,17.0,9,0.00,,,0.00,weatherlink.com 1.10,2013-05-03 02:29:00,
2013-05-02 19:44:00,55.0,-3.0,30.09,NNE,26,8.0,16.0,9,0.00,,,0.00,weatherlink.com 1.10,2013-05-03 02:44:00,
2013-05-02 19:59:00,54.9,-3.0,30.09,NNE,24,12.0,18.0,9,0.00,,,0.00,weatherlink.com 1.10,2013-05-03 02:59:00,
2013-05-02 20:14:00,55.4,-3.0,30.09,North,355,15.0,19.0,9,0.00,,,0.00,weatherlink.com 1.10,2013-05-03 03:14:00,
2013-05-02 20:29:00,55.7,-3.0,30.09,NNW,348,12.0,18.0,9,0.00,,,0.00,weatherlink.com 1.10,2013-05-03 03:29:00,
2013-05-02 20:44:00,55.8,-3.0,30.10,NNW,343,7.0,18.0,9,0.00,,,0.00,weatherlink.com 1.10,2013-05-03 03:44:00,
2013-05-02 20:59:00,55.7,-3.0,30.10,NNE,14,10.0,18.0,9,0.00,,,0.00,weatherlink.com 1.10,2013-05-03 03:59:00,
2013-05-02 21:14:00,55.3,-1.0,30.11,North,360,7.0,20.0,10,0.00,,,0.00,weatherlink.com 1.10,2013-05-03 04:14:00,
2013-05-02 21:29:00,55.6,-3.0,30.11,NNE,27,9.0,18.0,9,0.00,,,0.00,weatherlink.com 1.10,2013-05-03 04:29:00,
2013-05-02 21:45:00,55.7,0.0,30.11,NNW,343,16.0,19.0,10,0.00,,,0.00,weatherlink.com 1.10,2013-05-03 04:45:00,
2013-05-02 22:00:00,55.8,-3.0,30.11,North,355,13.0,19.0,9,0.00,,,0.00,weatherlink.com 1.10,2013-05-03 05:00:00,
2013-05-02 22:15:00,55.5,-3.0,30.11,North,360,13.0,16.0,9,0.00,,,0.00,weatherlink.com 1.10,2013-05-03 05:15:00,
2013-05-02 22:30:00,55.4,-3.0,30.11,NNE,15,11.0,17.0,9,0.00,,,0.00,weatherlink.com 1.10,2013-05-03 05:30:00,
2013-05-02 22:45:00,55.4,-3.0,30.11,North,5,7.0,14.0,9,0.00,,,0.00,weatherlink.com 1.10,2013-05-03 05:45:00,
2013-05-02 23:00:00,55.5,-3.0,30.11,NNE,15,10.0,16.0,9,0.00,,,0.00,weatherlink.com 1.10,2013-05-03 06:00:00,
2013-05-02 23:15:00,55.3,-3.0,30.12,NE,47,12.0,15.0,9,0.00,,,0.00,weatherlink.com 1.10,2013-05-03 06:15:00,
2013-05-02 23:30:00,54.7,-4.0,30.12,NNE,30,8.0,14.0,9,0.00,,,0.00,weatherlink.com 1.10,2013-05-03 06:30:00,
2013-05-02 23:45:00,53.8,-2.0,30.11,NNE,16,9.0,11.0,10,0.00,,,0.00,weatherlink.com 1.10,2013-05-03 06:45:00,